Time,TemperatureF,DewpointF,PressureIn,WindDirection,WindDirectionDegrees,WindSpeedMPH,WindSpeedGustMPH,Humidity,HourlyPrecipIn,Conditions,Clouds,dailyrainin,SolarRadiationWatts/m^2,SoftwareType,DateUTC
2013-12-23 00:04:00,37.2,45.7,29.79,SW,214,0.0,13.0,94,0.00,,,0.19,0.0,meteohub,2013-12-23 00:04:00,
2013-12-23 00:09:00,37.2,45.9,29.79,WSW,239,1.0,12.0,94,0.00,,,0.00,0.0,meteohub,2013-12-23 00:09:00,
2013-12-23 00:14:00,37.2,46.2,29.79,South,191,0.0,11.0,94,0.00,,,0.00,0.0,meteohub,2013-12-23 00:14:00,
2013-12-23 00:19:00,37.2,45.9,29.79,SSW,197,2.0,11.0,94,0.00,,,0.00,0.0,meteohub,2013-12-23 00:19:00,
2013-12-23 00:24:00,37.2,45.5,29.78,SSW,212,6.0,11.0,94,0.00,,,0.00,0.0,meteohub,2013-12-23 00:24:00,
2013-12-23 00:29:00,37.2,45.3,29.78,SSW,193,6.0,11.0,94,0.00,,,0.00,0.0,meteohub,2013-12-23 00:29:00,
2013-12-23 00:34:00,37.2,45.3,29.78,SSW,209,5.0,9.0,94,0.00,,,0.00,0.0,meteohub,2013-12-23 00:34:00,
2013-12-23 00:39:00,37.0,45.1,29.78,SSW,201,4.0,9.0,94,0.00,,,0.00,0.0,meteohub,2013-12-23 00:39:00,
2013-12-23 00:44:00,37.0,45.0,29.78,SSW,213,0.0,9.0,94,0.00,,,0.00,0.0,meteohub,2013-12-23 00:44:00,
2013-12-23 00:49:00,37.0,45.0,29.78,SSW,202,1.0,9.0,94,0.00,,,0.00,0.0,meteohub,2013-12-23 00:49:00,
2013-12-23 00:54:00,37.2,45.0,29.77,SSW,196,1.0,9.0,94,0.00,,,0.00,0.0,meteohub,2013-12-23 00:54:00,
2013-12-23 00:59:00,37.2,45.0,29.77,South,188,1.0,10.0,94,0.00,,,0.00,0.0,meteohub,2013-12-23 00:59:00,
2013-12-23 01:04:00,37.4,44.6,29.77,SSW,208,3.0,10.0,95,0.00,,,0.00,0.0,meteohub,2013-12-23 01:04:00,
2013-12-23 01:09:00,37.6,44.6,29.77,SSW,212,3.0,11.0,95,0.00,,,0.00,0.0,meteohub,2013-12-23 01:09:00,
2013-12-23 01:14:00,37.8,44.6,29.77,SW,235,6.0,11.0,95,0.00,,,0.00,0.0,meteohub,2013-12-23 01:14:00,
2013-12-23 01:19:00,37.6,44.6,29.77,SSW,213,2.0,11.0,95,0.00,,,0.00,0.0,meteohub,2013-12-23 01:19:00,
2013-12-23 01:24:00,37.8,44.4,29.77,SSW,207,0.0,14.0,95,0.00,,,0.00,0.0,meteohub,2013-12-23 01:24:00,
2013-12-23 01:29:00,37.8,44.4,29.77,SSW,213,0.0,14.0,95,0.00,,,0.00,0.0,meteohub,2013-12-23 01:29:00,
2013-12-23 01:34:00,37.8,44.2,29.77,SSW,213,3.0,14.0,95,0.00,,,0.00,0.0,meteohub,2013-12-23 01:34:00,
2013-12-23 01:39:00,37.9,44.2,29.76,South,190,1.0,13.0,95,0.00,,,0.00,0.0,meteohub,2013-12-23 01:39:00,
2013-12-23 01:44:00,37.9,44.1,29.77,SW,234,3.0,12.0,95,0.00,,,0.00,0.0,meteohub,2013-12-23 01:44:00,
2013-12-23 01:49:00,37.9,44.1,29.77,SW,231,4.0,12.0,95,0.00,,,0.00,0.0,meteohub,2013-12-23 01:49:00,
2013-12-23 01:54:00,37.9,44.1,29.77,SSW,211,3.0,12.0,95,0.00,,,0.00,0.0,meteohub,2013-12-23 01:54:00,
2013-12-23 01:59:00,38.1,44.1,29.77,SSW,211,0.0,11.0,95,0.00,,,0.00,0.0,meteohub,2013-12-23 01:59:00,
2013-12-23 02:04:00,38.1,44.1,29.77,SSW,202,6.0,17.0,95,0.00,,,0.00,0.0,meteohub,2013-12-23 02:04:00,
2013-12-23 02:09:00,38.3,43.9,29.77,SSE,162,2.0,17.0,95,0.00,,,0.00,0.0,meteohub,2013-12-23 02:09:00,
2013-12-23 02:14:00,38.3,43.9,29.76,SW,235,4.0,17.0,95,0.00,,,0.00,0.0,meteohub,2013-12-23 02:14:00,
2013-12-23 02:19:00,38.5,43.9,29.76,SW,223,2.0,15.0,95,0.00,,,0.00,0.0,meteohub,2013-12-23 02:19:00,
2013-12-23 02:24:00,38.7,43.7,29.76,South,188,5.0,15.0,95,0.00,,,0.00,0.0,meteohub,2013-12-23 02:24:00,
2013-12-23 02:29:00,38.7,43.7,29.75,SW,229,8.0,15.0,95,0.00,,,0.00,0.0,meteohub,2013-12-23 02:29:00,
2013-12-23 02:34:00,38.8,43.7,29.75,SW,214,0.0,13.0,95,0.00,,,0.00,0.0,meteohub,2013-12-23 02:34:00,
2013-12-23 02:39:00,38.8,43.5,29.75,SW,235,4.0,13.0,95,0.00,,,0.00,0.0,meteohub,2013-12-23 02:39:00,
2013-12-23 02:44:00,39.0,43.5,29.75,SW,215,0.0,13.0,95,0.00,,,0.00,0.0,meteohub,2013-12-23 02:44:00,
2013-12-23 02:49:00,39.4,43.5,29.75,SW,222,1.0,13.0,95,0.00,,,0.00,0.0,meteohub,2013-12-23 02:49:00,
2013-12-23 02:54:00,39.4,43.5,29.75,SSW,211,3.0,13.0,95,0.00,,,0.00,0.0,meteohub,2013-12-23 02:54:00,
2013-12-23 02:59:00,39.4,43.5,29.74,SSW,202,0.0,12.0,94,0.00,,,0.00,0.0,meteohub,2013-12-23 02:59:00,
2013-12-23 03:04:00,39.4,43.3,29.74,SSW,211,0.0,10.0,94,0.00,,,0.00,0.0,meteohub,2013-12-23 03:04:00,
2013-12-23 03:09:00,39.2,43.3,29.74,SSW,203,2.0,10.0,94,0.00,,,0.00,0.0,meteohub,2013-12-23 03:09:00,
2013-12-23 03:14:00,39.2,43.3,29.74,SSW,211,7.0,10.0,94,0.00,,,0.00,0.0,meteohub,2013-12-23 03:14:00,
2013-12-23 03:19:00,39.0,43.3,29.73,SSW,200,2.0,10.0,94,0.00,,,0.00,0.0,meteohub,2013-12-23 03:19:00,
2013-12-23 03:24:00,39.2,43.3,29.73,South,173,3.0,10.0,94,0.00,,,0.00,0.0,meteohub,2013-12-23 03:24:00,
2013-12-23 03:29:00,39.4,43.3,29.73,South,191,4.0,14.0,94,0.00,,,0.00,0.0,meteohub,2013-12-23 03:29:00,
2013-12-23 03:34:00,39.4,43.3,29.73,SW,229,2.0,14.0,94,0.00,,,0.00,0.0,meteohub,2013-12-23 03:34:00,
2013-12-23 03:39:00,39.6,43.2,29.73,South,184,10.0,14.0,94,0.00,,,0.00,0.0,meteohub,2013-12-23 03:39:00,
2013-12-23 03:45:00,39.6,43.2,29.72,South,173,11.0,16.0,94,0.00,,,0.00,0.0,meteohub,2013-12-23 03:45:00,
2013-12-23 03:50:00,39.7,43.2,29.72,SSW,207,4.0,16.0,94,0.00,,,0.00,0.0,meteohub,2013-12-23 03:50:00,
2013-12-23 03:55:00,39.7,43.2,29.71,SSW,195,4.0,16.0,94,0.00,,,0.00,0.0,meteohub,2013-12-23 03:55:00,
2013-12-23 04:00:00,39.7,43.0,29.72,SSW,194,2.0,13.0,94,0.00,,,0.00,0.0,meteohub,2013-12-23 04:00:00,
2013-12-23 04:05:00,39.9,43.0,29.71,South,187,5.0,12.0,93,0.00,,,0.00,0.0,meteohub,2013-12-23 04:05:00,
2013-12-23 04:10:00,39.9,42.6,29.71,SSW,205,0.0,13.0,93,0.00,,,0.00,0.0,meteohub,2013-12-23 04:10:00,
2013-12-23 04:15:00,39.9,42.6,29.70,SSW,205,3.0,13.0,93,0.00,,,0.00,0.0,meteohub,2013-12-23 04:15:00,
2013-12-23 04:20:00,40.1,42.6,29.70,SSW,193,9.0,13.0,93,0.00,,,0.00,0.0,meteohub,2013-12-23 04:20:00,
2013-12-23 04:25:00,40.1,42.6,29.69,SSW,194,7.0,11.0,93,0.00,,,0.00,0.0,meteohub,2013-12-23 04:25:00,
2013-12-23 04:30:00,40.3,42.6,29.69,SW,214,0.0,11.0,93,0.00,,,0.00,0.0,meteohub,2013-12-23 04:30:00,
2013-12-23 04:35:00,40.3,42.6,29.69,SSW,196,1.0,10.0,93,0.00,,,0.00,0.0,meteohub,2013-12-23 04:35:00,
2013-12-23 04:40:00,40.3,42.4,29.69,South,184,3.0,11.0,93,0.00,,,0.00,0.0,meteohub,2013-12-23 04:40:00,
2013-12-23 04:45:00,40.5,42.4,29.68,SSE,168,2.0,11.0,92,0.00,,,0.00,0.0,meteohub,2013-12-23 04:45:00,
2013-12-23 04:50:00,40.3,42.4,29.68,SSW,192,2.0,11.0,92,0.00,,,0.00,0.0,meteohub,2013-12-23 04:50:00,
2013-12-23 04:55:00,40.3,42.4,29.68,South,180,1.0,10.0,92,0.00,,,0.00,0.0,meteohub,2013-12-23 04:55:00,
2013-12-23 05:00:00,40.3,42.4,29.68,South,188,2.0,10.0,92,0.00,,,0.00,0.0,meteohub,2013-12-23 05:00:00,
2013-12-23 05:01:00,40.3,42.4,29.68,SSW,200,4.0,10.0,92,0.00,,,0.00,0.0,meteohub,2013-12-23 05:01:00,
2013-12-23 05:02:00,40.3,42.4,29.67,SSW,201,0.0,10.0,92,0.00,,,0.00,0.0,meteohub,2013-12-23 05:02:00,
2013-12-23 05:07:00,40.1,42.4,29.67,SSE,164,4.0,10.0,92,0.00,,,0.00,0.0,meteohub,2013-12-23 05:07:00,
2013-12-23 05:12:00,40.1,42.4,29.67,SSW,198,0.0,10.0,92,0.00,,,0.00,0.0,meteohub,2013-12-23 05:12:00,
2013-12-23 05:17:00,40.1,42.4,29.66,SSW,202,3.0,10.0,92,0.00,,,0.00,0.0,meteohub,2013-12-23 05:17:00,
2013-12-23 05:22:00,40.1,42.3,29.66,SSW,206,0.0,10.0,92,0.00,,,0.00,0.0,meteohub,2013-12-23 05:22:00,
2013-12-23 05:27:00,40.1,42.3,29.66,SSW,212,0.0,10.0,92,0.00,,,0.00,0.0,meteohub,2013-12-23 05:27:00,
2013-12-23 05:32:00,39.9,42.3,29.65,South,177,10.0,10.0,92,0.00,,,0.00,0.0,meteohub,2013-12-23 05:32:00,
2013-12-23 05:37:00,39.9,42.3,29.65,SSE,167,6.0,15.0,92,0.00,,,0.00,0.0,meteohub,2013-12-23 05:37:00,
2013-12-23 05:42:00,39.7,42.3,29.64,South,183,8.0,15.0,92,0.00,,,0.00,0.0,meteohub,2013-12-23 05:42:00,
2013-12-23 05:47:00,39.7,41.9,29.64,South,178,0.0,15.0,92,0.00,,,0.00,0.0,meteohub,2013-12-23 05:47:00,
2013-12-23 05:52:00,39.7,42.1,29.64,SSW,200,1.0,11.0,92,0.00,,,0.00,0.0,meteohub,2013-12-23 05:52:00,
2013-12-23 05:57:00,39.7,43.0,29.64,South,177,5.0,11.0,93,0.00,,,0.00,0.0,meteohub,2013-12-23 05:57:00,
2013-12-23 06:02:00,39.6,43.3,29.63,South,175,6.0,11.0,93,0.00,,,0.00,0.0,meteohub,2013-12-23 06:02:00,
2013-12-23 06:07:00,39.7,43.7,29.62,South,183,4.0,10.0,93,0.00,,,0.00,0.0,meteohub,2013-12-23 06:07:00,
2013-12-23 06:12:00,39.7,43.7,29.62,SSW,205,0.0,10.0,93,0.00,,,0.00,0.0,meteohub,2013-12-23 06:12:00,
2013-12-23 06:17:00,39.7,43.7,29.61,South,169,1.0,10.0,93,0.00,,,0.00,0.0,meteohub,2013-12-23 06:17:00,
2013-12-23 06:22:00,39.9,44.4,29.61,South,175,9.0,10.0,93,0.00,,,0.00,0.0,meteohub,2013-12-23 06:22:00,
2013-12-23 06:27:00,39.9,44.8,29.61,SSW,196,1.0,14.0,93,0.00,,,0.00,0.0,meteohub,2013-12-23 06:27:00,
2013-12-23 06:32:00,40.1,45.3,29.60,South,174,3.0,14.0,93,0.00,,,0.00,0.0,meteohub,2013-12-23 06:32:00,
2013-12-23 06:37:00,40.3,45.3,29.60,SSE,167,8.0,14.0,93,0.00,,,0.00,0.0,meteohub,2013-12-23 06:37:00,
2013-12-23 06:42:00,40.3,45.3,29.59,SSE,151,2.0,13.0,93,0.00,,,0.00,0.0,meteohub,2013-12-23 06:42:00,
2013-12-23 06:47:00,40.5,45.0,29.59,SSW,204,3.0,13.0,93,0.00,,,0.00,0.0,meteohub,2013-12-23 06:47:00,
2013-12-23 06:52:00,40.6,44.4,29.58,SSE,165,2.0,13.0,93,0.00,,,0.00,0.0,meteohub,2013-12-23 06:52:00,
2013-12-23 06:57:00,40.8,44.1,29.58,SSW,207,3.0,10.0,93,0.00,,,0.00,0.0,meteohub,2013-12-23 06:57:00,
2013-12-23 07:02:00,41.2,43.7,29.57,South,180,6.0,10.0,93,0.00,,,0.00,0.0,meteohub,2013-12-23 07:02:00,
2013-12-23 07:07:00,41.2,44.1,29.57,South,188,4.0,16.0,93,0.00,,,0.00,0.0,meteohub,2013-12-23 07:07:00,
2013-12-23 07:12:00,41.5,44.1,29.56,South,176,3.0,16.0,93,0.00,,,0.00,0.0,meteohub,2013-12-23 07:12:00,
2013-12-23 07:17:00,41.5,44.1,29.55,South,171,6.0,17.0,93,0.00,,,0.00,0.0,meteohub,2013-12-23 07:17:00,
2013-12-23 07:22:00,41.9,44.4,29.55,SSW,209,4.0,17.0,93,0.00,,,0.00,0.0,meteohub,2013-12-23 07:22:00,
2013-12-23 07:27:00,42.1,44.1,29.55,SSE,167,11.0,17.0,93,0.00,,,0.00,0.0,meteohub,2013-12-23 07:27:00,
2013-12-23 07:32:00,42.1,44.4,29.54,South,177,2.0,15.0,93,0.00,,,0.00,0.0,meteohub,2013-12-23 07:32:00,
2013-12-23 07:37:00,42.3,44.2,29.53,South,182,5.0,14.0,93,0.00,,,0.00,0.0,meteohub,2013-12-23 07:37:00,
2013-12-23 07:42:00,42.3,44.2,29.53,SW,221,2.0,14.0,93,0.00,,,0.00,0.0,meteohub,2013-12-23 07:42:00,
2013-12-23 07:47:00,42.3,44.2,29.52,South,177,9.0,17.0,93,0.00,,,0.00,0.0,meteohub,2013-12-23 07:47:00,
2013-12-23 07:52:00,42.3,44.1,29.52,South,178,9.0,17.0,93,0.00,,,0.00,0.0,meteohub,2013-12-23 07:52:00,
2013-12-23 07:57:00,42.3,44.1,29.51,South,173,7.0,17.0,93,0.00,,,0.00,0.0,meteohub,2013-12-23 07:57:00,
2013-12-23 08:02:00,42.3,44.4,29.51,South,178,5.0,15.0,93,0.00,,,0.00,0.0,meteohub,2013-12-23 08:02:00,
2013-12-23 08:07:00,42.1,44.4,29.50,SSE,152,7.0,15.0,93,0.00,,,0.00,0.0,meteohub,2013-12-23 08:07:00,
2013-12-23 08:12:00,42.1,44.4,29.49,South,173,6.0,16.0,94,0.00,,,0.00,0.0,meteohub,2013-12-23 08:12:00,
2013-12-23 08:17:00,42.1,44.4,29.49,SSE,168,4.0,16.0,94,0.00,,,0.00,0.0,meteohub,2013-12-23 08:17:00,
2013-12-23 08:22:00,42.3,44.6,29.48,South,169,17.0,17.0,94,0.01,,,0.01,0.0,meteohub,2013-12-23 08:22:00,
2013-12-23 08:27:00,42.3,44.6,29.47,South,172,13.0,17.0,95,0.01,,,0.01,0.0,meteohub,2013-12-23 08:27:00,
2013-12-23 08:33:00,42.4,44.6,29.47,South,173,5.0,17.0,95,0.01,,,0.01,0.0,meteohub,2013-12-23 08:33:00,
2013-12-23 08:38:00,42.4,44.6,29.46,South,188,6.0,19.0,95,0.01,,,0.01,0.0,meteohub,2013-12-23 08:38:00,
2013-12-23 08:43:00,42.6,44.6,29.46,SSE,162,6.0,19.0,95,0.01,,,0.01,0.0,meteohub,2013-12-23 08:43:00,
2013-12-23 08:48:00,42.8,44.6,29.45,South,187,5.0,19.0,96,0.01,,,0.01,0.0,meteohub,2013-12-23 08:48:00,
2013-12-23 08:53:00,43.2,44.6,29.44,SE,143,6.0,16.0,96,0.01,,,0.01,7.0,meteohub,2013-12-23 08:53:00,
2013-12-23 08:58:00,43.3,44.6,29.44,SSE,160,6.0,16.0,96,0.01,,,0.01,9.0,meteohub,2013-12-23 08:58:00,
2013-12-23 09:03:00,43.5,44.6,29.43,SE,132,7.0,21.0,96,0.01,,,0.01,9.0,meteohub,2013-12-23 09:03:00,
2013-12-23 09:08:00,43.9,44.6,29.43,SSW,192,6.0,21.0,96,0.01,,,0.01,9.0,meteohub,2013-12-23 09:08:00,
2013-12-23 09:13:00,44.1,44.6,29.42,SSE,160,10.0,21.0,97,0.01,,,0.01,7.0,meteohub,2013-12-23 09:13:00,
2013-12-23 09:18:00,44.4,44.6,29.41,South,183,5.0,20.0,97,0.01,,,0.01,9.0,meteohub,2013-12-23 09:18:00,
2013-12-23 09:23:00,44.8,45.3,29.40,South,172,6.0,19.0,97,0.00,,,0.01,11.0,meteohub,2013-12-23 09:23:00,
2013-12-23 09:28:00,44.8,45.3,29.39,South,171,13.0,19.0,97,0.00,,,0.01,5.0,meteohub,2013-12-23 09:28:00,
2013-12-23 09:33:00,45.0,45.3,29.39,SSE,165,17.0,20.0,96,0.00,,,0.01,11.0,meteohub,2013-12-23 09:33:00,
2013-12-23 09:38:00,45.1,45.5,29.38,South,187,12.0,24.0,96,0.01,,,0.02,12.0,meteohub,2013-12-23 09:38:00,
2013-12-23 09:43:00,45.1,45.5,29.37,SSE,153,10.0,24.0,96,0.01,,,0.02,18.0,meteohub,2013-12-23 09:43:00,
2013-12-23 09:48:00,45.3,45.7,29.37,South,173,6.0,24.0,97,0.02,,,0.03,16.0,meteohub,2013-12-23 09:48:00,
2013-12-23 09:53:00,45.3,46.2,29.36,SSE,147,11.0,22.0,97,0.02,,,0.03,12.0,meteohub,2013-12-23 09:53:00,
2013-12-23 09:58:00,45.5,46.2,29.36,South,180,6.0,22.0,97,0.02,,,0.03,16.0,meteohub,2013-12-23 09:58:00,
2013-12-23 10:04:00,45.7,46.4,29.35,SSE,156,12.0,23.0,97,0.03,,,0.04,21.0,meteohub,2013-12-23 10:04:00,
2013-12-23 10:09:00,45.9,46.4,29.34,SW,215,4.0,26.0,97,0.03,,,0.04,16.0,meteohub,2013-12-23 10:09:00,
2013-12-23 10:14:00,46.0,46.8,29.33,South,182,0.0,26.0,97,0.03,,,0.04,14.0,meteohub,2013-12-23 10:14:00,
2013-12-23 10:19:00,46.2,46.9,29.32,SSE,156,11.0,28.0,97,0.04,,,0.05,16.0,meteohub,2013-12-23 10:19:00,
2013-12-23 10:24:00,46.4,47.1,29.32,SSW,195,14.0,28.0,97,0.04,,,0.05,18.0,meteohub,2013-12-23 10:24:00,
2013-12-23 10:29:00,46.8,47.5,29.31,SSW,209,9.0,28.0,97,0.04,,,0.05,14.0,meteohub,2013-12-23 10:29:00,
2013-12-23 10:34:00,46.9,47.7,29.31,SW,219,19.0,26.0,96,0.04,,,0.05,19.0,meteohub,2013-12-23 10:34:00,
2013-12-23 10:39:00,47.1,47.7,29.30,SSW,199,5.0,26.0,96,0.04,,,0.06,16.0,meteohub,2013-12-23 10:39:00,
2013-12-23 10:44:00,47.1,48.0,29.29,SSW,194,15.0,26.0,96,0.05,,,0.07,12.0,meteohub,2013-12-23 10:44:00,
2013-12-23 10:49:00,47.3,48.2,29.29,SSE,160,8.0,24.0,96,0.04,,,0.07,18.0,meteohub,2013-12-23 10:49:00,
2013-12-23 10:54:00,47.5,48.4,29.28,South,190,14.0,24.0,96,0.05,,,0.08,19.0,meteohub,2013-12-23 10:54:00,
2013-12-23 10:59:00,47.7,48.2,29.27,SSW,192,16.0,28.0,96,0.05,,,0.08,16.0,meteohub,2013-12-23 10:59:00,
2013-12-23 11:04:00,47.8,48.2,29.27,South,189,8.0,28.0,95,0.05,,,0.09,19.0,meteohub,2013-12-23 11:04:00,
2013-12-23 11:09:00,47.8,47.8,29.26,SW,227,3.0,28.0,95,0.05,,,0.09,26.0,meteohub,2013-12-23 11:09:00,
2013-12-23 11:14:00,47.8,47.8,29.25,SSW,208,9.0,24.0,95,0.05,,,0.10,18.0,meteohub,2013-12-23 11:14:00,
2013-12-23 11:19:00,47.8,47.8,29.24,South,185,5.0,26.0,95,0.05,,,0.10,21.0,meteohub,2013-12-23 11:19:00,
2013-12-23 11:24:00,47.8,47.3,29.23,SW,227,13.0,26.0,95,0.06,,,0.11,21.0,meteohub,2013-12-23 11:24:00,
2013-12-23 11:29:00,47.8,47.3,29.23,South,188,15.0,26.0,95,0.06,,,0.11,19.0,meteohub,2013-12-23 11:29:00,
2013-12-23 11:34:00,47.8,47.3,29.22,SSW,211,15.0,27.0,95,0.07,,,0.12,19.0,meteohub,2013-12-23 11:34:00,
2013-12-23 11:39:00,48.0,47.3,29.21,SSW,198,15.0,29.0,95,0.06,,,0.12,25.0,meteohub,2013-12-23 11:39:00,
2013-12-23 11:44:00,48.0,47.8,29.20,SSW,200,16.0,29.0,94,0.06,,,0.13,18.0,meteohub,2013-12-23 11:44:00,
2013-12-23 11:49:00,48.0,47.3,29.20,SSW,201,10.0,29.0,94,0.06,,,0.13,18.0,meteohub,2013-12-23 11:49:00,
2013-12-23 11:54:00,48.0,47.3,29.19,SE,146,5.0,31.0,94,0.07,,,0.14,14.0,meteohub,2013-12-23 11:54:00,
2013-12-23 11:59:00,48.0,47.3,29.18,SSE,147,10.0,31.0,95,0.07,,,0.15,18.0,meteohub,2013-12-23 11:59:00,
2013-12-23 12:04:00,48.2,47.5,29.17,SSE,162,18.0,31.0,95,0.07,,,0.16,21.0,meteohub,2013-12-23 12:04:00,
2013-12-23 12:09:00,48.2,47.5,29.16,SSE,154,19.0,31.0,95,0.08,,,0.17,23.0,meteohub,2013-12-23 12:09:00,
2013-12-23 12:14:00,48.4,49.1,29.16,South,184,15.0,31.0,95,0.07,,,0.17,25.0,meteohub,2013-12-23 12:14:00,
2013-12-23 12:19:00,48.4,49.3,29.14,SSW,193,24.0,31.0,95,0.08,,,0.18,14.0,meteohub,2013-12-23 12:19:00,
2013-12-23 12:24:00,48.4,49.5,29.14,SSW,204,8.0,32.0,95,0.07,,,0.18,14.0,meteohub,2013-12-23 12:24:00,
2013-12-23 12:29:00,48.6,49.6,29.13,SSW,195,7.0,34.0,95,0.07,,,0.18,14.0,meteohub,2013-12-23 12:29:00,
2013-12-23 12:34:00,48.6,49.6,29.13,SSW,205,5.0,34.0,95,0.07,,,0.19,18.0,meteohub,2013-12-23 12:34:00,
2013-12-23 12:39:00,48.7,48.7,29.12,South,186,17.0,34.0,95,0.07,,,0.19,18.0,meteohub,2013-12-23 12:39:00,
2013-12-23 12:44:00,48.7,48.7,29.11,SSE,155,10.0,30.0,95,0.07,,,0.20,14.0,meteohub,2013-12-23 12:44:00,
2013-12-23 12:49:00,48.9,48.4,29.10,SW,220,10.0,30.0,95,0.07,,,0.20,12.0,meteohub,2013-12-23 12:49:00,
2013-12-23 12:54:00,48.9,48.4,29.10,SSW,201,10.0,30.0,95,0.06,,,0.21,19.0,meteohub,2013-12-23 12:54:00,
2013-12-23 12:59:00,49.1,48.4,29.10,South,172,14.0,37.0,95,0.06,,,0.21,11.0,meteohub,2013-12-23 12:59:00,
2013-12-23 13:04:00,49.1,48.4,29.09,South,170,12.0,37.0,95,0.05,,,0.21,11.0,meteohub,2013-12-23 13:04:00,
2013-12-23 13:09:00,49.1,48.4,29.08,SSW,196,14.0,37.0,95,0.05,,,0.22,12.0,meteohub,2013-12-23 13:09:00,
2013-12-23 13:14:00,49.3,48.4,29.08,SW,223,15.0,28.0,95,0.06,,,0.22,9.0,meteohub,2013-12-23 13:14:00,
2013-12-23 13:19:00,49.3,48.4,29.08,SSE,165,7.0,28.0,95,0.05,,,0.23,9.0,meteohub,2013-12-23 13:19:00,
2013-12-23 13:24:00,49.3,48.4,29.07,South,188,13.0,25.0,95,0.05,,,0.23,9.0,meteohub,2013-12-23 13:24:00,
2013-12-23 13:29:00,49.5,48.7,29.06,South,191,15.0,25.0,95,0.06,,,0.24,9.0,meteohub,2013-12-23 13:29:00,
2013-12-23 13:34:00,49.5,48.4,29.06,South,188,6.0,25.0,95,0.05,,,0.24,9.0,meteohub,2013-12-23 13:34:00,
2013-12-23 13:39:00,49.6,48.4,29.05,SSW,196,7.0,23.0,95,0.06,,,0.25,11.0,meteohub,2013-12-23 13:39:00,
2013-12-23 13:44:00,49.8,48.2,29.05,South,190,5.0,23.0,95,0.05,,,0.25,14.0,meteohub,2013-12-23 13:44:00,
2013-12-23 13:49:00,50.0,48.2,29.05,SSW,209,5.0,22.0,95,0.05,,,0.25,9.0,meteohub,2013-12-23 13:49:00,
2013-12-23 13:54:00,50.0,48.6,29.04,SE,138,11.0,25.0,95,0.05,,,0.26,7.0,meteohub,2013-12-23 13:54:00,
2013-12-23 13:59:00,50.2,48.6,29.04,SW,228,5.0,25.0,95,0.06,,,0.27,7.0,meteohub,2013-12-23 13:59:00,
2013-12-23 14:04:00,50.2,48.7,29.03,SSW,211,17.0,25.0,95,0.07,,,0.28,9.0,meteohub,2013-12-23 14:04:00,
2013-12-23 14:09:00,50.4,48.4,29.03,SSW,197,12.0,23.0,95,0.06,,,0.28,11.0,meteohub,2013-12-23 14:09:00,
2013-12-23 14:14:00,50.4,48.4,29.02,South,188,9.0,23.0,95,0.06,,,0.29,14.0,meteohub,2013-12-23 14:14:00,
2013-12-23 14:19:00,50.5,48.4,29.03,SW,221,11.0,23.0,95,0.06,,,0.29,12.0,meteohub,2013-12-23 14:19:00,
2013-12-23 14:24:00,50.5,48.4,29.02,South,183,6.0,23.0,95,0.06,,,0.29,11.0,meteohub,2013-12-23 14:24:00,
2013-12-23 14:30:00,50.5,48.7,29.01,SSW,194,9.0,26.0,95,0.06,,,0.30,11.0,meteohub,2013-12-23 14:30:00,
2013-12-23 14:35:00,50.5,49.6,29.01,SSW,210,14.0,26.0,95,0.06,,,0.30,9.0,meteohub,2013-12-23 14:35:00,
2013-12-23 14:40:00,50.7,49.1,29.01,South,190,17.0,26.0,95,0.06,,,0.31,5.0,meteohub,2013-12-23 14:40:00,
2013-12-23 14:45:00,50.7,48.7,29.01,SSW,209,7.0,29.0,95,0.06,,,0.31,7.0,meteohub,2013-12-23 14:45:00,
2013-12-23 14:50:00,50.7,48.7,29.00,SSW,195,4.0,29.0,95,0.07,,,0.32,5.0,meteohub,2013-12-23 14:50:00,
2013-12-23 14:55:00,50.7,48.7,29.00,SW,217,19.0,29.0,95,0.07,,,0.33,0.0,meteohub,2013-12-23 14:55:00,
2013-12-23 15:00:00,50.7,48.7,29.01,WSW,245,4.0,24.0,96,0.07,,,0.34,0.0,meteohub,2013-12-23 15:00:00,
2013-12-23 15:05:00,50.7,48.7,29.02,SSW,205,10.0,24.0,96,0.09,,,0.37,0.0,meteohub,2013-12-23 15:05:00,
2013-12-23 15:10:00,50.7,48.7,29.01,South,185,9.0,24.0,96,0.12,,,0.40,5.0,meteohub,2013-12-23 15:10:00,
2013-12-23 15:15:00,50.7,48.9,29.00,WSW,241,14.0,25.0,96,0.12,,,0.41,5.0,meteohub,2013-12-23 15:15:00,
2013-12-23 15:20:00,50.7,48.9,28.99,SSW,205,14.0,25.0,96,0.12,,,0.41,0.0,meteohub,2013-12-23 15:20:00,
2013-12-23 15:25:00,50.7,48.9,28.99,South,175,9.0,25.0,96,0.12,,,0.41,0.0,meteohub,2013-12-23 15:25:00,
2013-12-23 15:30:00,50.5,48.9,28.99,SSW,205,3.0,24.0,95,0.11,,,0.41,0.0,meteohub,2013-12-23 15:30:00,
2013-12-23 15:35:00,50.4,48.7,28.99,SSW,196,4.0,24.0,95,0.12,,,0.42,0.0,meteohub,2013-12-23 15:35:00,
2013-12-23 15:40:00,50.4,48.4,28.99,SSW,200,7.0,22.0,95,0.11,,,0.42,0.0,meteohub,2013-12-23 15:40:00,
2013-12-23 15:45:00,50.2,48.4,28.99,SSW,197,8.0,20.0,95,0.10,,,0.42,0.0,meteohub,2013-12-23 15:45:00,
2013-12-23 15:50:00,50.2,48.4,28.99,SSW,199,6.0,20.0,95,0.10,,,0.42,0.0,meteohub,2013-12-23 15:50:00,
2013-12-23 15:55:00,50.2,48.2,28.98,SW,219,7.0,20.0,94,0.09,,,0.42,0.0,meteohub,2013-12-23 15:55:00,
2013-12-23 16:00:00,50.2,48.2,28.98,SSW,202,6.0,20.0,94,0.08,,,0.42,0.0,meteohub,2013-12-23 16:00:00,
2013-12-23 16:05:00,50.0,48.0,28.98,South,170,11.0,20.0,94,0.05,,,0.42,0.0,meteohub,2013-12-23 16:05:00,
2013-12-23 16:10:00,50.2,48.0,28.98,South,187,11.0,20.0,95,0.02,,,0.42,0.0,meteohub,2013-12-23 16:10:00,
2013-12-23 16:15:00,50.2,48.0,28.97,SSW,204,9.0,20.0,95,0.01,,,0.42,0.0,meteohub,2013-12-23 16:15:00,
2013-12-23 16:20:00,50.2,48.2,28.97,SW,231,12.0,20.0,95,0.01,,,0.42,0.0,meteohub,2013-12-23 16:20:00,
2013-12-23 16:25:00,50.2,48.2,28.97,SSW,199,3.0,18.0,95,0.01,,,0.42,0.0,meteohub,2013-12-23 16:25:00,
2013-12-23 16:30:00,50.2,48.2,28.97,South,181,3.0,18.0,95,0.01,,,0.42,0.0,meteohub,2013-12-23 16:30:00,
2013-12-23 16:35:00,50.2,48.2,28.97,South,186,5.0,18.0,95,0.00,,,0.42,0.0,meteohub,2013-12-23 16:35:00,
2013-12-23 16:40:00,50.2,48.2,28.97,SW,225,4.0,18.0,95,0.00,,,0.42,0.0,meteohub,2013-12-23 16:40:00,
2013-12-23 16:45:00,50.2,48.2,28.97,SSW,209,11.0,18.0,95,0.00,,,0.42,0.0,meteohub,2013-12-23 16:45:00,
2013-12-23 16:50:00,50.2,48.0,28.97,SSW,202,5.0,18.0,95,0.00,,,0.42,0.0,meteohub,2013-12-23 16:50:00,
2013-12-23 16:55:00,50.2,48.0,28.97,SSW,213,3.0,18.0,95,0.00,,,0.42,0.0,meteohub,2013-12-23 16:55:00,
2013-12-23 17:00:00,50.2,48.0,28.96,SSW,204,2.0,16.0,95,0.00,,,0.42,0.0,meteohub,2013-12-23 17:00:00,
2013-12-23 17:06:00,50.2,48.0,28.96,South,169,9.0,18.0,95,0.00,,,0.42,0.0,meteohub,2013-12-23 17:06:00,
2013-12-23 17:11:00,50.2,47.8,28.96,SSW,209,6.0,18.0,95,0.00,,,0.42,0.0,meteohub,2013-12-23 17:11:00,
2013-12-23 17:16:00,50.2,47.8,28.96,South,184,6.0,18.0,95,0.00,,,0.42,0.0,meteohub,2013-12-23 17:16:00,
2013-12-23 17:21:00,50.2,47.8,28.96,SSW,201,11.0,17.0,95,0.00,,,0.42,0.0,meteohub,2013-12-23 17:21:00,
2013-12-23 17:26:00,50.0,47.8,28.96,South,173,3.0,17.0,94,0.00,,,0.42,0.0,meteohub,2013-12-23 17:26:00,
2013-12-23 17:31:00,50.2,47.8,28.96,South,184,1.0,17.0,94,0.00,,,0.42,0.0,meteohub,2013-12-23 17:31:00,
2013-12-23 17:36:00,50.0,48.2,28.96,South,174,15.0,20.0,94,0.00,,,0.42,0.0,meteohub,2013-12-23 17:36:00,
2013-12-23 17:41:00,50.2,48.2,28.96,South,189,9.0,22.0,93,0.00,,,0.42,0.0,meteohub,2013-12-23 17:41:00,
2013-12-23 17:46:00,50.4,48.2,28.96,SSW,204,6.0,22.0,93,0.00,,,0.42,0.0,meteohub,2013-12-23 17:46:00,
2013-12-23 17:51:00,50.2,48.2,28.96,SSW,198,9.0,22.0,92,0.00,,,0.42,0.0,meteohub,2013-12-23 17:51:00,
2013-12-23 17:56:00,50.2,48.2,28.95,South,184,11.0,19.0,92,0.00,,,0.42,0.0,meteohub,2013-12-23 17:56:00,
2013-12-23 18:01:00,50.4,48.2,28.95,South,190,6.0,18.0,92,0.00,,,0.42,0.0,meteohub,2013-12-23 18:01:00,
2013-12-23 18:06:00,50.4,48.6,28.95,SSW,208,11.0,20.0,92,0.00,,,0.42,0.0,meteohub,2013-12-23 18:06:00,
2013-12-23 18:11:00,50.5,48.6,28.95,SSW,192,3.0,20.0,92,0.00,,,0.42,0.0,meteohub,2013-12-23 18:11:00,
2013-12-23 18:16:00,50.5,49.1,28.95,SW,219,13.0,20.0,92,0.00,,,0.42,0.0,meteohub,2013-12-23 18:16:00,
2013-12-23 18:21:00,50.5,48.6,28.93,SSW,206,8.0,16.0,92,0.00,,,0.42,0.0,meteohub,2013-12-23 18:21:00,
2013-12-23 18:26:00,50.5,48.6,28.93,SSE,158,7.0,16.0,92,0.00,,,0.42,0.0,meteohub,2013-12-23 18:26:00,
2013-12-23 18:31:00,50.5,48.6,28.93,SSW,200,5.0,18.0,93,0.00,,,0.42,0.0,meteohub,2013-12-23 18:31:00,
2013-12-23 18:36:00,50.7,48.6,28.92,SSW,197,3.0,18.0,93,0.00,,,0.42,0.0,meteohub,2013-12-23 18:36:00,
2013-12-23 18:41:00,50.7,48.6,28.92,SSW,192,10.0,18.0,92,0.00,,,0.42,0.0,meteohub,2013-12-23 18:41:00,
2013-12-23 18:46:00,50.7,48.6,28.92,SSW,205,3.0,17.0,92,0.00,,,0.42,0.0,meteohub,2013-12-23 18:46:00,
2013-12-23 18:51:00,50.7,48.6,28.92,South,180,9.0,17.0,92,0.00,,,0.42,0.0,meteohub,2013-12-23 18:51:00,
2013-12-23 18:56:00,50.9,48.6,28.92,SSW,195,4.0,18.0,92,0.00,,,0.42,0.0,meteohub,2013-12-23 18:56:00,
2013-12-23 19:01:00,50.9,48.6,28.91,South,175,12.0,18.0,92,0.00,,,0.42,0.0,meteohub,2013-12-23 19:01:00,
2013-12-23 19:06:00,50.9,48.6,28.91,South,181,2.0,18.0,92,0.00,,,0.42,0.0,meteohub,2013-12-23 19:06:00,
2013-12-23 19:11:00,51.1,48.6,28.91,SSW,193,7.0,17.0,92,0.00,,,0.42,0.0,meteohub,2013-12-23 19:11:00,
2013-12-23 19:16:00,51.1,48.6,28.90,SSW,210,6.0,17.0,91,0.00,,,0.42,0.0,meteohub,2013-12-23 19:16:00,
2013-12-23 19:21:00,51.1,48.6,28.90,SSW,205,3.0,19.0,91,0.00,,,0.42,0.0,meteohub,2013-12-23 19:21:00,
2013-12-23 19:26:00,51.1,48.2,28.89,South,190,5.0,19.0,91,0.00,,,0.42,0.0,meteohub,2013-12-23 19:26:00,
2013-12-23 19:31:00,51.1,48.6,28.89,SSE,158,14.0,19.0,91,0.00,,,0.42,0.0,meteohub,2013-12-23 19:31:00,
2013-12-23 19:36:00,51.3,48.6,28.89,SSE,166,16.0,20.0,91,0.00,,,0.42,0.0,meteohub,2013-12-23 19:36:00,
2013-12-23 19:41:00,51.3,48.6,28.88,SSW,213,7.0,20.0,91,0.00,,,0.42,0.0,meteohub,2013-12-23 19:41:00,
2013-12-23 19:47:00,51.3,48.6,28.88,SSW,211,6.0,22.0,91,0.00,,,0.42,0.0,meteohub,2013-12-23 19:47:00,
2013-12-23 19:52:00,51.1,48.6,28.87,SSW,207,11.0,22.0,91,0.00,,,0.42,0.0,meteohub,2013-12-23 19:52:00,
2013-12-23 19:57:00,51.1,48.6,28.87,SSW,197,10.0,22.0,92,0.00,,,0.42,0.0,meteohub,2013-12-23 19:57:00,
2013-12-23 20:02:00,51.1,48.6,28.86,South,184,12.0,21.0,92,0.00,,,0.42,0.0,meteohub,2013-12-23 20:02:00,
2013-12-23 20:07:00,50.9,49.1,28.86,South,185,9.0,21.0,92,0.00,,,0.42,0.0,meteohub,2013-12-23 20:07:00,
2013-12-23 20:12:00,50.9,49.1,28.85,SSE,152,10.0,21.0,92,0.00,,,0.42,0.0,meteohub,2013-12-23 20:12:00,
2013-12-23 20:17:00,50.9,49.1,28.85,SSW,197,6.0,20.0,92,0.00,,,0.42,0.0,meteohub,2013-12-23 20:17:00,
2013-12-23 20:22:00,50.9,49.1,28.84,South,182,7.0,17.0,93,0.00,,,0.42,0.0,meteohub,2013-12-23 20:22:00,
2013-12-23 20:27:00,50.9,49.1,28.84,South,169,9.0,17.0,93,0.00,,,0.42,0.0,meteohub,2013-12-23 20:27:00,
2013-12-23 20:32:00,51.1,49.1,28.83,SSW,194,9.0,17.0,93,0.00,,,0.42,0.0,meteohub,2013-12-23 20:32:00,
2013-12-23 20:37:00,51.1,49.5,28.82,South,190,6.0,16.0,93,0.00,,,0.42,0.0,meteohub,2013-12-23 20:37:00,
2013-12-23 20:42:00,51.1,49.5,28.82,SSW,192,3.0,16.0,93,0.00,,,0.42,0.0,meteohub,2013-12-23 20:42:00,
2013-12-23 20:47:00,51.1,49.5,28.82,SSW,199,6.0,16.0,94,0.00,,,0.42,0.0,meteohub,2013-12-23 20:47:00,
2013-12-23 20:52:00,50.9,49.5,28.81,South,184,4.0,16.0,94,0.00,,,0.42,0.0,meteohub,2013-12-23 20:52:00,
2013-12-23 20:57:00,50.9,49.5,28.81,SSW,196,3.0,18.0,94,0.01,,,0.43,0.0,meteohub,2013-12-23 20:57:00,
2013-12-23 21:02:00,50.7,49.5,28.80,SW,216,6.0,20.0,95,0.01,,,0.43,0.0,meteohub,2013-12-23 21:02:00,
2013-12-23 21:07:00,50.7,49.5,28.80,South,186,7.0,20.0,95,0.01,,,0.43,0.0,meteohub,2013-12-23 21:07:00,
2013-12-23 21:12:00,50.7,49.1,28.79,SW,222,7.0,20.0,95,0.02,,,0.44,0.0,meteohub,2013-12-23 21:12:00,
2013-12-23 21:17:00,50.7,49.1,28.79,SSW,192,10.0,19.0,95,0.02,,,0.44,0.0,meteohub,2013-12-23 21:17:00,
2013-12-23 21:22:00,50.7,49.5,28.78,South,171,12.0,19.0,95,0.03,,,0.45,0.0,meteohub,2013-12-23 21:22:00,
2013-12-23 21:27:00,50.7,49.5,28.77,South,187,2.0,23.0,96,0.04,,,0.46,0.0,meteohub,2013-12-23 21:27:00,
2013-12-23 21:32:00,50.7,49.5,28.76,ESE,116,4.0,23.0,96,0.05,,,0.47,0.0,meteohub,2013-12-23 21:32:00,
2013-12-23 21:37:00,50.7,49.1,28.76,SSW,194,5.0,23.0,96,0.06,,,0.48,0.0,meteohub,2013-12-23 21:37:00,
2013-12-23 21:42:00,50.7,49.1,28.74,SW,235,4.0,22.0,96,0.07,,,0.49,0.0,meteohub,2013-12-23 21:42:00,
2013-12-23 21:47:00,50.7,49.1,28.73,South,178,16.0,24.0,96,0.08,,,0.50,0.0,meteohub,2013-12-23 21:47:00,
2013-12-23 21:52:00,50.7,49.1,28.73,WSW,241,8.0,24.0,96,0.09,,,0.51,0.0,meteohub,2013-12-23 21:52:00,
2013-12-23 21:57:00,50.7,49.1,28.72,South,173,8.0,24.0,96,0.09,,,0.52,0.0,meteohub,2013-12-23 21:57:00,
2013-12-23 22:02:00,50.7,49.1,28.71,South,180,14.0,21.0,96,0.10,,,0.53,0.0,meteohub,2013-12-23 22:02:00,
2013-12-23 22:07:00,50.5,49.1,28.70,South,169,10.0,21.0,96,0.11,,,0.54,0.0,meteohub,2013-12-23 22:07:00,
2013-12-23 22:12:00,50.5,49.1,28.69,South,170,11.0,21.0,96,0.11,,,0.55,0.0,meteohub,2013-12-23 22:12:00,
2013-12-23 22:17:00,50.5,49.1,28.68,South,186,8.0,23.0,96,0.12,,,0.56,0.0,meteohub,2013-12-23 22:17:00,
2013-12-23 22:22:00,50.5,49.1,28.66,South,184,10.0,23.0,96,0.12,,,0.57,0.0,meteohub,2013-12-23 22:22:00,
2013-12-23 22:27:00,50.5,49.1,28.65,SSE,158,7.0,23.0,97,0.13,,,0.59,0.0,meteohub,2013-12-23 22:27:00,
2013-12-23 22:32:00,50.5,49.1,28.65,SSE,151,13.0,22.0,97,0.13,,,0.60,0.0,meteohub,2013-12-23 22:32:00,
2013-12-23 22:37:00,50.7,49.1,28.64,South,177,5.0,25.0,97,0.13,,,0.61,0.0,meteohub,2013-12-23 22:37:00,
2013-12-23 22:42:00,50.9,49.1,28.64,South,169,5.0,25.0,97,0.13,,,0.61,0.0,meteohub,2013-12-23 22:42:00,
2013-12-23 22:47:00,51.1,49.1,28.63,South,174,14.0,25.0,97,0.13,,,0.63,0.0,meteohub,2013-12-23 22:47:00,
2013-12-23 22:52:00,51.3,48.9,28.63,SSE,166,11.0,25.0,97,0.12,,,0.63,0.0,meteohub,2013-12-23 22:52:00,
2013-12-23 22:57:00,51.4,48.9,28.62,South,177,6.0,33.0,97,0.12,,,0.64,0.0,meteohub,2013-12-23 22:57:00,
2013-12-23 23:02:00,51.8,48.9,28.61,SW,222,6.0,33.0,97,0.12,,,0.65,0.0,meteohub,2013-12-23 23:02:00,
2013-12-23 23:07:00,52.0,48.9,28.62,SSW,213,17.0,33.0,97,0.12,,,0.66,0.0,meteohub,2013-12-23 23:07:00,
2013-12-23 23:12:00,52.2,48.9,28.61,SSW,198,13.0,29.0,97,0.12,,,0.67,0.0,meteohub,2013-12-23 23:12:00,
2013-12-23 23:17:00,52.2,48.7,28.61,South,181,15.0,29.0,97,0.12,,,0.68,0.0,meteohub,2013-12-23 23:17:00,
2013-12-23 23:22:00,52.3,48.7,28.62,SW,232,11.0,27.0,96,0.13,,,0.70,0.0,meteohub,2013-12-23 23:22:00,
2013-12-23 23:27:00,52.3,48.7,28.62,SSW,212,10.0,26.0,96,0.15,,,0.74,0.0,meteohub,2013-12-23 23:27:00,
2013-12-23 23:32:00,52.3,48.7,28.62,SW,228,18.0,21.0,97,0.18,,,0.78,0.0,meteohub,2013-12-23 23:32:00,
2013-12-23 23:37:00,52.3,48.7,28.62,South,191,9.0,19.0,97,0.17,,,0.78,0.0,meteohub,2013-12-23 23:37:00,
2013-12-23 23:42:00,52.3,48.7,28.61,WSW,255,5.0,21.0,97,0.19,,,0.80,0.0,meteohub,2013-12-23 23:42:00,
2013-12-23 23:47:00,52.3,49.1,28.61,SW,227,5.0,21.0,97,0.23,,,0.85,0.0,meteohub,2013-12-23 23:47:00,
2013-12-23 23:52:00,52.2,49.1,28.61,South,181,4.0,21.0,97,0.27,,,0.91,0.0,meteohub,2013-12-23 23:52:00,
2013-12-23 23:57:00,52.2,49.1,28.61,South,188,2.0,18.0,97,0.29,,,0.93,0.0,meteohub,2013-12-23 23:57:00,